User: anonymous   Login
Location: ??????
(30.5519°N, 47.7720°E)
Time: 20:49:48
(UTC+00:00)
Language:

Hubble Space Telescope - Orbit

View from above orbital plane
View from above orbital plane
View from above satellite
View from above satellite

Ground track
Ground track

The orbit data is extracted from the following two-line orbital elements,

1 20580U 90037B   21110.34973368  .00000671  00000-0  29670-4 0  9994
2 20580  28.4695  89.5254 0002818 152.7732 353.5783 15.09616139502271
Epoch (UTC): 20 April 2021 08:23:36
Eccentricity: 0.0002818
inclination: 28.4695°
perigee height: 535 km
apogee height: 539 km
right ascension of ascending node: 89.5254°
argument of perigee: 152.7732°
revolutions per day: 15.09616139
mean anomaly at epoch: 353.5783°
orbit number at epoch: 50227

The dashed part of the orbit path shows where the satellite is in the earth's shadow,  

DLR